{"data":{"norad_id":67975,"intl_designator":"2026-038Q","name":"STARLINK-36883","alt_names":[],"object_type":"PAYLOAD","status":"ACTIVE","operator":null,"country":"US","launch_date":"2026-02-25","launch_site_code":"AFWTR","launch_vehicle":null,"mission":null,"orbit_class":"UNKNOWN","rcs_meters":null,"size_class":null,"mass_kg":null,"dimensions":null,"purposes":["comms"],"wikipedia_slug":null,"has_3d_model":false,"image_url":null,"decayed_at":null,"tle_current":{"epoch":"2026-09-19T23:05:20.050368Z","epoch_age_seconds":106103,"freshness":"FRESH","line1":"1 67975U 26038Q   26262.96203762  .00026057  00000+0  80579-3 0  9997","line2":"2 67975  97.2851 271.3509 0003232  83.9644 276.1967 15.33475163 33012","mean_motion":15.33475163,"eccentricity":0.0003232,"inclination_deg":97.2851,"raan_deg":271.3509,"arg_perigee_deg":83.9644,"mean_anomaly_deg":276.1967,"bstar":0.00080579,"rev_number":3301,"period_min":93.904357549741,"perigee_km":463.24158365499,"apogee_km":467.66528051029,"semimajor_km":6843.5904320826,"source":"CELESTRAK","updated_at":"2026-09-20T09:00:43.732082Z"}}}